AOR-E (EGNOS/PRN 120)

Last updated on Fri Apr 19 2019 03:00:26 GMT+0000 (Coordinated Universal Time)

1 24307U 96053A 19107.48583052 -.00000181 00000-0 00000-0 0 9993 2 24307 4.0009 74.2886 0007553 311.4914 268.0910 0.99982702 82775
UTC large
Height (km)
Speed (km/s)
/
Latitude / Longitude
Inclination (degrees)
Orbital Period (minutes)
Azimuth
Elevation
Range (km)
Doppler Factor

Next 0 passes for location: London (51.5072 / 0.1276)

Sorry there are no passes over London.
AOR-E (EGNOS/PRN 120)